Year,Month,Day,Hour,Minute,Value (Times are PST for temperature in C)
2021,06,27,13,02,31.70
2021,06,27,13,03,31.70
2021,06,27,13,04,31.80
2021,06,27,13,05,31.80
2021,06,27,13,06,31.80
2021,06,27,13,07,31.80
2021,06,27,13,08,31.80
2021,06,27,13,09,31.80
2021,06,27,13,10,31.90
2021,06,27,13,11,31.90
2021,06,27,13,12,31.90
2021,06,27,13,13,31.80
2021,06,27,13,14,31.80
2021,06,27,13,15,31.90
2021,06,27,13,16,32.00
2021,06,27,13,17,32.10
2021,06,27,13,18,32.20
2021,06,27,13,19,32.30
2021,06,27,13,20,32.40
2021,06,27,13,21,32.60
2021,06,27,13,22,32.70
2021,06,27,13,23,32.80
2021,06,27,13,24,32.90
2021,06,27,13,25,33.00
2021,06,27,13,26,33.00
2021,06,27,13,27,33.00
2021,06,27,13,28,32.90
2021,06,27,13,29,32.80
2021,06,27,13,30,32.80
2021,06,27,13,31,32.90
2021,06,27,13,32,32.80
2021,06,27,13,33,32.80
2021,06,27,13,34,32.70
2021,06,27,13,35,32.70
2021,06,27,13,36,32.70
2021,06,27,13,37,32.70
2021,06,27,13,38,32.80
2021,06,27,13,39,32.90
2021,06,27,13,40,32.90
2021,06,27,13,41,32.90
2021,06,27,13,42,33.00
2021,06,27,13,43,33.00
2021,06,27,13,44,33.10
2021,06,27,13,45,33.20
2021,06,27,13,46,33.30
2021,06,27,13,47,33.40
2021,06,27,13,48,33.40
2021,06,27,13,49,33.30
2021,06,27,13,50,33.30
2021,06,27,13,51,33.30
2021,06,27,13,52,33.40
2021,06,27,13,53,33.50
2021,06,27,13,54,33.50
2021,06,27,13,55,33.50
2021,06,27,13,56,33.40
2021,06,27,13,57,33.30
2021,06,27,13,58,33.40
2021,06,27,13,59,33.30
2021,06,27,14,00,33.10
2021,06,27,14,01,33.10
2021,06,27,14,02,33.10
2021,06,27,14,03,33.10
2021,06,27,14,04,33.10
2021,06,27,14,05,33.10
2021,06,27,14,06,33.10
2021,06,27,14,07,33.20
2021,06,27,14,08,33.30
2021,06,27,14,09,33.40
2021,06,27,14,10,33.40
2021,06,27,14,11,33.40
2021,06,27,14,12,33.40
2021,06,27,14,13,33.50
2021,06,27,14,14,33.50
2021,06,27,14,15,33.60
2021,06,27,14,16,33.70
2021,06,27,14,17,33.60
2021,06,27,14,18,33.60
2021,06,27,14,19,33.60
2021,06,27,14,20,33.60
2021,06,27,14,21,33.70
2021,06,27,14,22,33.70
2021,06,27,14,23,33.80
2021,06,27,14,24,33.90
2021,06,27,14,25,34.00
2021,06,27,14,26,34.10
2021,06,27,14,27,34.20
2021,06,27,14,28,34.30
2021,06,27,14,29,34.40
2021,06,27,14,30,34.40
2021,06,27,14,31,34.40
2021,06,27,14,32,34.40
2021,06,27,14,33,34.30
2021,06,27,14,34,34.20
2021,06,27,14,35,34.20
2021,06,27,14,36,34.20
2021,06,27,14,37,34.20
2021,06,27,14,38,34.30
2021,06,27,14,39,34.40
2021,06,27,14,40,34.40
2021,06,27,14,41,34.50
2021,06,27,14,42,34.60
2021,06,27,14,43,34.70
2021,06,27,14,44,34.70
2021,06,27,14,45,34.80
2021,06,27,14,46,34.90
2021,06,27,14,47,34.90
2021,06,27,14,48,35.00
2021,06,27,14,49,35.20
2021,06,27,14,50,35.20
2021,06,27,14,51,35.30
2021,06,27,14,52,35.30
2021,06,27,14,53,35.20
2021,06,27,14,54,35.20
2021,06,27,14,55,35.20
2021,06,27,14,56,35.30
2021,06,27,14,57,35.20
2021,06,27,14,58,34.90
2021,06,27,14,59,34.60
2021,06,27,15,00,34.40
2021,06,27,15,01,34.30
2021,06,27,15,02,34.20
2021,06,27,15,03,34.20
2021,06,27,15,04,34.20
2021,06,27,15,05,34.20
2021,06,27,15,06,34.20
2021,06,27,15,07,34.20
2021,06,27,15,08,34.00
2021,06,27,15,09,33.70
2021,06,27,15,10,33.50
2021,06,27,15,11,33.30
2021,06,27,15,12,33.20
2021,06,27,15,13,33.20
2021,06,27,15,14,33.30
2021,06,27,15,15,33.30
2021,06,27,15,16,33.10
2021,06,27,15,17,32.90
2021,06,27,15,18,32.80
2021,06,27,15,19,32.70
2021,06,27,15,20,32.80
2021,06,27,15,21,32.80
2021,06,27,15,22,33.00
2021,06,27,15,23,33.10
2021,06,27,15,24,33.20
2021,06,27,15,25,33.30
2021,06,27,15,26,33.40
2021,06,27,15,27,33.50
2021,06,27,15,28,33.50
2021,06,27,15,29,33.70
2021,06,27,15,30,33.80
2021,06,27,15,31,33.90
2021,06,27,15,32,34.00
2021,06,27,15,33,34.10
2021,06,27,15,34,34.20
2021,06,27,15,35,34.30
2021,06,27,15,36,34.40
2021,06,27,15,37,34.50
2021,06,27,15,38,34.50
2021,06,27,15,39,34.50
2021,06,27,15,40,34.60
2021,06,27,15,41,34.70
2021,06,27,15,42,34.70
2021,06,27,15,43,34.80
2021,06,27,15,44,34.80
2021,06,27,15,45,34.80
2021,06,27,15,46,34.70
2021,06,27,15,47,34.60
2021,06,27,15,48,34.60
2021,06,27,15,49,34.50
2021,06,27,15,50,34.50
2021,06,27,15,51,34.40
2021,06,27,15,52,34.40
2021,06,27,15,53,34.40
2021,06,27,15,54,34.30
2021,06,27,15,55,34.30
2021,06,27,15,56,34.30
2021,06,27,15,57,34.30
2021,06,27,15,58,34.30
2021,06,27,15,59,34.30
2021,06,27,16,00,34.30
2021,06,27,16,01,34.30
2021,06,27,16,02,34.40
2021,06,27,16,03,34.50
2021,06,27,16,04,34.60
2021,06,27,16,05,34.70
2021,06,27,16,06,34.90
2021,06,27,16,07,35.10
2021,06,27,16,08,35.20
2021,06,27,16,09,35.30
2021,06,27,16,10,35.40
2021,06,27,16,11,35.40
2021,06,27,16,12,35.50
2021,06,27,16,13,35.40
2021,06,27,16,14,35.30
2021,06,27,16,15,35.20
2021,06,27,16,16,35.10
2021,06,27,16,17,35.10
2021,06,27,16,18,34.90
2021,06,27,16,19,34.80
2021,06,27,16,20,34.80
2021,06,27,16,21,34.80
2021,06,27,16,22,34.80
2021,06,27,16,23,34.90
2021,06,27,16,24,35.00
2021,06,27,16,25,35.10
2021,06,27,16,26,35.30
2021,06,27,16,27,35.40
2021,06,27,16,28,35.60
2021,06,27,16,29,35.80
2021,06,27,16,30,35.90
2021,06,27,16,31,35.90
2021,06,27,16,32,35.90
2021,06,27,16,33,35.90
2021,06,27,16,34,35.90
2021,06,27,16,35,36.00
2021,06,27,16,36,36.00
2021,06,27,16,37,36.00
2021,06,27,16,38,36.10
2021,06,27,16,39,36.20
2021,06,27,16,40,36.30
2021,06,27,16,41,36.30
2021,06,27,16,42,36.30
2021,06,27,16,43,36.30
2021,06,27,16,44,36.40
2021,06,27,16,45,36.40
2021,06,27,16,46,36.50
2021,06,27,16,47,36.50
2021,06,27,16,48,36.60
2021,06,27,16,49,36.70
2021,06,27,16,50,36.80
2021,06,27,16,51,36.90
2021,06,27,16,52,36.90
2021,06,27,16,53,37.00
2021,06,27,16,54,37.10
2021,06,27,16,55,37.10
2021,06,27,16,56,37.20
2021,06,27,16,57,37.20
2021,06,27,16,58,37.30
2021,06,27,16,59,37.30
2021,06,27,17,00,37.40
2021,06,27,17,01,37.40
2021,06,27,17,02,37.50
2021,06,27,17,03,37.50
2021,06,27,17,04,37.50
2021,06,27,17,05,37.60
2021,06,27,17,06,37.50
2021,06,27,17,07,37.50
2021,06,27,17,08,37.40
2021,06,27,17,09,37.40
2021,06,27,17,10,37.30
2021,06,27,17,11,37.30
2021,06,27,17,12,37.30
2021,06,27,17,13,37.30
2021,06,27,17,14,37.40
2021,06,27,17,15,37.40
2021,06,27,17,16,37.50
2021,06,27,17,17,37.60
2021,06,27,17,18,37.70
2021,06,27,17,19,37.80
2021,06,27,17,20,37.90
2021,06,27,17,21,38.00
2021,06,27,17,22,38.10
2021,06,27,17,23,38.20
2021,06,27,17,24,38.30
2021,06,27,17,25,38.30
2021,06,27,17,26,38.40
2021,06,27,17,27,38.50
2021,06,27,17,28,38.50
2021,06,27,17,29,38.60
2021,06,27,17,30,38.60
2021,06,27,17,31,38.70
2021,06,27,17,32,38.70
2021,06,27,17,33,38.70
2021,06,27,17,34,38.80
2021,06,27,17,35,38.80
2021,06,27,17,36,38.80
2021,06,27,17,37,38.90
2021,06,27,17,38,38.90
2021,06,27,17,39,39.00
2021,06,27,17,40,39.10
2021,06,27,17,41,39.10
2021,06,27,17,42,39.20
2021,06,27,17,43,39.20
2021,06,27,17,44,39.20
2021,06,27,17,45,39.20
2021,06,27,17,46,39.20
2021,06,27,17,47,39.20
2021,06,27,17,48,39.20
2021,06,27,17,49,39.20
2021,06,27,17,50,39.20
2021,06,27,17,51,39.20
2021,06,27,17,52,39.30
2021,06,27,17,53,39.30
2021,06,27,17,54,39.30
2021,06,27,17,55,39.30
2021,06,27,17,56,39.30
2021,06,27,17,57,39.30
2021,06,27,17,58,39.30
2021,06,27,17,59,39.30
2021,06,27,18,00,39.30
2021,06,27,18,01,39.30
2021,06,27,18,02,39.40
2021,06,27,18,03,39.40
2021,06,27,18,04,39.50
2021,06,27,18,05,39.50
2021,06,27,18,06,39.50
2021,06,27,18,07,39.50
2021,06,27,18,08,39.50
2021,06,27,18,09,39.50
2021,06,27,18,10,39.50
2021,06,27,18,11,39.40
2021,06,27,18,12,39.30
2021,06,27,18,13,39.30
2021,06,27,18,14,39.30
2021,06,27,18,15,39.20
2021,06,27,18,16,39.10
2021,06,27,18,17,38.80
2021,06,27,18,18,38.60
2021,06,27,18,19,38.40
2021,06,27,18,20,38.20
2021,06,27,18,21,38.00
2021,06,27,18,22,37.90
2021,06,27,18,23,37.80
2021,06,27,18,24,37.60
2021,06,27,18,25,37.60
2021,06,27,18,26,37.50
2021,06,27,18,27,37.40
2021,06,27,18,28,37.30
2021,06,27,18,29,37.00
2021,06,27,18,30,36.70
2021,06,27,18,31,36.50
2021,06,27,18,32,36.30
2021,06,27,18,33,36.10
2021,06,27,18,34,36.00
2021,06,27,18,35,35.80
2021,06,27,18,36,35.70
2021,06,27,18,37,35.60
2021,06,27,18,38,35.50
2021,06,27,18,39,35.50
2021,06,27,18,40,35.40
2021,06,27,18,41,35.30
2021,06,27,18,42,35.30
2021,06,27,18,43,35.20
2021,06,27,18,44,35.20
2021,06,27,18,45,35.20
2021,06,27,18,46,35.20
2021,06,27,18,47,35.20
2021,06,27,18,48,35.20
2021,06,27,18,49,35.10
2021,06,27,18,50,35.10
2021,06,27,18,51,35.10
2021,06,27,18,52,35.10
2021,06,27,18,53,35.00
2021,06,27,18,54,34.90
2021,06,27,18,55,34.90
2021,06,27,18,56,34.90
2021,06,27,18,57,34.90
2021,06,27,18,58,34.90
2021,06,27,18,59,34.90
2021,06,27,19,00,34.90
2021,06,27,19,01,34.90
2021,06,27,19,02,34.90
2021,06,27,19,03,35.00
2021,06,27,19,04,34.90
2021,06,27,19,05,34.90
2021,06,27,19,06,34.90
2021,06,27,19,07,34.90
2021,06,27,19,08,34.90
2021,06,27,19,09,34.90
2021,06,27,19,10,34.90
2021,06,27,19,11,34.90
2021,06,27,19,12,34.80
2021,06,27,19,13,34.80
2021,06,27,19,14,34.80
2021,06,27,19,15,34.80
2021,06,27,19,16,34.70
2021,06,27,19,17,34.70
2021,06,27,19,18,34.60
2021,06,27,19,19,34.60
2021,06,27,19,20,34.60
2021,06,27,19,21,34.50
2021,06,27,19,22,34.50
2021,06,27,19,23,34.40
2021,06,27,19,24,34.40
2021,06,27,19,25,34.30
2021,06,27,19,26,34.30
2021,06,27,19,27,34.30
2021,06,27,19,28,34.20
2021,06,27,19,29,34.20
2021,06,27,19,30,34.20
2021,06,27,19,31,34.20
2021,06,27,19,32,34.10
2021,06,27,19,33,34.10
2021,06,27,19,34,34.10
2021,06,27,19,35,34.10
2021,06,27,19,36,34.10
2021,06,27,19,37,34.10
2021,06,27,19,38,34.10
2021,06,27,19,39,34.10
2021,06,27,19,40,34.10
2021,06,27,19,41,34.00
2021,06,27,19,42,33.90
2021,06,27,19,43,33.90
2021,06,27,19,44,33.80
2021,06,27,19,45,33.70
2021,06,27,19,46,33.60
2021,06,27,19,47,33.50
2021,06,27,19,48,33.40
2021,06,27,19,49,33.30
2021,06,27,19,50,33.20
2021,06,27,19,51,33.10
2021,06,27,19,52,33.00
2021,06,27,19,53,32.90
2021,06,27,19,54,32.80
2021,06,27,19,55,32.80
2021,06,27,19,56,32.70
2021,06,27,19,57,32.70
2021,06,27,19,58,32.70
2021,06,27,19,59,32.60
2021,06,27,20,00,32.60
2021,06,27,20,01,32.60
2021,06,27,20,02,32.50
2021,06,27,20,03,32.50
2021,06,27,20,04,32.50
2021,06,27,20,05,32.40
2021,06,27,20,06,32.40
2021,06,27,20,07,32.40
2021,06,27,20,08,32.40
2021,06,27,20,09,32.30
2021,06,27,20,10,32.30
2021,06,27,20,11,32.20
2021,06,27,20,12,32.20
2021,06,27,20,13,32.10
2021,06,27,20,14,32.00
2021,06,27,20,15,32.00
2021,06,27,20,16,31.90
2021,06,27,20,17,31.80
2021,06,27,20,18,31.80
2021,06,27,20,19,31.70
2021,06,27,20,20,31.70
2021,06,27,20,21,31.60
2021,06,27,20,22,31.50
2021,06,27,20,23,31.40
2021,06,27,20,24,31.40
2021,06,27,20,25,31.30
2021,06,27,20,26,31.20
2021,06,27,20,27,31.20
2021,06,27,20,28,31.20
2021,06,27,20,29,31.10
2021,06,27,20,30,31.10
2021,06,27,20,31,31.10
2021,06,27,20,32,31.10
2021,06,27,20,33,31.10
2021,06,27,20,34,31.00
2021,06,27,20,35,31.00
2021,06,27,20,36,31.00
2021,06,27,20,37,30.90
2021,06,27,20,38,30.90
2021,06,27,20,39,30.90
2021,06,27,20,40,30.80
2021,06,27,20,41,30.80
2021,06,27,20,42,30.80
2021,06,27,20,43,30.70
2021,06,27,20,44,30.70
2021,06,27,20,45,30.70
2021,06,27,20,46,30.60
2021,06,27,20,47,30.60
2021,06,27,20,48,30.60
2021,06,27,20,49,30.60
2021,06,27,20,50,30.60
2021,06,27,20,51,30.60
2021,06,27,20,52,30.50
2021,06,27,20,53,30.50
2021,06,27,20,54,30.50
2021,06,27,20,55,30.40
2021,06,27,20,56,30.40
2021,06,27,20,57,30.40
2021,06,27,20,58,30.40
2021,06,27,20,59,30.40
2021,06,27,21,00,30.40
2021,06,27,21,01,30.30
2021,06,27,21,02,30.30
2021,06,27,21,03,30.30
2021,06,27,21,04,30.30
2021,06,27,21,05,30.30
2021,06,27,21,06,30.30
2021,06,27,21,07,30.30
2021,06,27,21,08,30.30
2021,06,27,21,09,30.30
2021,06,27,21,10,30.30
2021,06,27,21,11,30.30
2021,06,27,21,12,30.30
2021,06,27,21,13,30.30
2021,06,27,21,14,30.30
2021,06,27,21,15,30.30
